CAPE
1 0 0 0 0 3 1 2 0 0 0 1 0 1 2 0 0 0 0 0 0 0 0 0 0 0 0 0 0 8 24 3 0 0 0 6 33 57 49 6 49 75 104 147 165
0 0 0 0 0 0 0 0 0 0 0 1 1 4 4 0 0 0 0 0 0 0 0 0 0 0 0 0 0 0 8 0 0 5 10 29 22 27 61 56 42 121 237 189 67
0 0 0 0 0 0 0 0 0 0 2 1 0 3 0 0 0 0 0 0 0 0 0 0 0 0 0 0 0 0 0 0 4 24 18 6 27 17 53 16 52 127 413 240 40
0 0 0 0 0 0 0 0 0 0 1 0 0 3 0 0 0 0 0 0 0 0 0 0 0 0 0 0 0 0 0 0 0 1 2 0 0 61 30 18 51 57 154 287 29
0 0 0 0 0 0 0 0 0 0 0 0 0 1 0 0 0 0 0 0 0 0 0 0 0 0 0 0 0 0 0 0 0 0 0 0 0 1 17 37 24 139 422 375 133
0 0 0 0 0 0 0 0 0 0 0 0 0 0 3 0 0 0 0 0 0 0 0 0 0 1 4 0 1 2 13 11 5 0 0 0 0 0 0 23 20 17 139 216 300
0 0 0 0 0 0 0 0 0 0 0 0 2 3 3 0 0 0 0 0 0 0 0 0 0 0 0 0 0 3 0 3 1 0 0 0 0 0 0 2 27 37 11 52 129
0 0 0 0 0 0 0 0 0 0 0 0 2 3 0 0 0 0 0 0 0 0 0 0 0 0 0 0 0 0 0 0 0 0 0 0 0 0 0 1 5 10 28 56 132
0 0 0 0 0 0 0 0 0 0 0 0 4 6 0 0 0 0 0 0 0 0 0 0 0 0 0 0 5 0 0 0 0 1 0 0 0 0 0 3 1 34 17 34 43
0 0 0 0 0 0 0 0 0 0 0 0 0 0 0 0 0 0 0 0 0 0 0 2 9 2 2 9 1 0 11 2 7 1 5 0 0 0 0 1 0 7 18 34 41
0 0 0 0 0 0 0 0 0 0 0 0 0 0 0 0 0 0 0 0 0 0 0 36 15 7 0 11 5 0 0 0 0 0 0 1 6 2 0 0 28 13 29 20 16
0 0 0 0 0 0 0 0 0 0 0 0 0 0 0 0 0 0 0 0 0 0 10 11 7 0 3 12 11 0 0 0 0 0 0 0 0 0 0 0 0 0 10 15 23
0 0 0 0 0 0 0 0 0 5 0 0 0 0 0 0 0 0 0 0 0 1 1 3 0 8 16 4 9 1 0 0 0 0 1 7 2 0 0 0 0 0 0 0 22
0 0 0 0 0 0 0 0 0 4 0 0 0 0 0 0 0 0 0 0 0 0 0 1 0 11 8 4 2 0 0 1 1 11 6 2 1 0 0 0 0 0 0 0 15
0 0 0 0 0 0 0 0 0 0 0 0 0 0 0 0 0 0 0 0 0 0 0 0 2 6 2 0 0 0 5 0 1 11 6 0 0 0 0 0 0 0 0 0 0
0 0 0 0 0 0 0 0 0 0 0 0 0 0 0 0 0 0 0 0 0 0 0 1 2 3 0 0 0 0 4 4 12 12 5 0 0 0 0 0 0 0 0 0 0
0 0 0 0 0 0 0 0 0 0 0 0 0 0 0 0 0 0 0 0 4 6 0 0 0 0 0 0 0 1 0 0 2 13 0 0 0 0 0 0 0 0 0 0 0
0 0 0 0 0 0 0 0 0 0 0 0 0 0 0 0 0 0 0 0 0 1 0 0 0 0 7 2 3 0 0 0 0 0 0 0 0 0 0 0 0 1 0 0 0
0 0 0 0 0 0 0 0 0 0 0 0 0 0 0 0 0 0 0 0 0 3 2 0 0 0 0 0 1 5 0 1 19 4 7 12 0 0 0 0 0 0 0 0 0
0 0 0 0 0 0 0 0 0 0 0 0 0 0 0 0 0 1 0 0 0 0 3 0 0 0 0 0 1 2 7 2 0 0 1 0 8 0 0 0 0 0 0 0 0
0 0 0 0 0 0 0 0 0 0 0 0 1 2 0 3 1 0 0 0 0 0 0 0 0 0 0 0 0 0 4 0 0 0 0 1 3 5 6 32 9 0 0 0 0
0 0 0 0 0 0 0 0 0 0 0 4 4 1 3 4 2 0 0 0 0 0 0 0 0 0 0 0 1 1 0 0 4 0 0 0 0 2 1 0 1 12 2 0 0
0 0 0 0 0 0 0 0 0 0 0 1 0 2 0 1 0 0 0 0 0 0 0 0 0 0 0 0 0 0 0 2 0 0 0 0 3 0 3 1 2 2 0 0 0
0 0 0 0 0 0 0 0 0 0 0 1 2 1 0 0 0 0 0 0 0 0 1 1 0 0 0 0 0 0 0 2 0 0 0 0 1 0 0 3 2 1 2 0 0
0 0 0 0 0 0 0 0 0 0 0 0 0 0 3 0 0 0 0 0 0 0 0 0 0 0 1 0 0 0 0 0 0 0 0 1 2 2 1 1 4 4 4 3 4
0 0 0 0 0 0 0 0 0 0 0 0 0 0 0 0 0 1 1 0 1 0 0 0 0 0 0 0 1 0 0 0 1 0 0 0 0 0 1 2 2 3 4 5 4
0 0 0 0 0 0 0 0 0 0 0 0 0 0 0 0 2 4 1 2 2 1 1 0 0 0 0 0 0 0 0 0 0 1 1 0 1 1 1 1 1 3 4 5 5
CIN
-1 0 -1 0 0 0 0 0 0 0 0 0 0 0 0 0 0 0 0 0 0 0 0 0 0 0 0 0 0 -1 0 0 0 0 0 -3 -4 -4 -5 -2 -8 -17 -24 -84 -193
0 0 0 0 0 0 0 0 0 0 0 0 0 0 0 0 0 0 0 0 0 0 0 0 0 0 0 0 0 0 -1 0 0 -2 -5 -3 -4 -3 -4 -2 -4 -12 -85 -108 -243
0 0 0 0 0 0 0 0 0 0 0 0 0 0 0 0 0 0 0 0 0 0 0 0 0 0 0 0 0 0 0 0 -8 -7 -58 -69 -7 -6 -3 -12 -2 -2 -13 -99 -234
0 0 0 0 0 0 0 0 0 0 0 0 0 0 0 0 0 0 0 0 0 0 0 0 0 0 0 0 0 0 0 0 0 -17 -46 0 -76 -2 -6 -3 -9 -6 -7 -80 -167
0 0 0 0 0 0 0 0 0 0 0 0 0 0 0 0 0 0 0 0 0 0 0 0 0 0 0 0 0 0 0 0 0 0 0 0 0 -1 -54 -14 -21 -4 -9 -52 -91
0 0 0 0 0 0 0 0 0 0 0 0 0 0 0 0 0 0 0 0 0 0 0 0 0 -1 -1 0 -2 -2 -3 -3 -2 0 0 0 0 0 0 -30 -37 -28 -15 -10 -25
0 0 0 0 0 0 0 0 0 0 0 0 0 -1 0 0 0 0 0 0 0 0 0 0 0 0 0 0 0 -1 -1 -4 -2 0 0 0 0 0 0 -43 -42 -14 -40 -10 -7
0 0 0 0 0 0 0 0 0 0 0 0 -1 -1 0 0 0 0 0 0 0 0 0 0 0 0 0 0 0 -2 -1 0 0 0 0 0 0 0 0 -7 -39 -26 -25 -1 -18
0 0 0 0 0 0 0 0 0 0 0 0 -1 0 0 0 0 0 0 0 0 0 0 0 0 0 0 0 -2 0 0 0 0 -3 -1 0 0 0 0 -19 -11 -25 -22 -2 -3
0 0 0 0 0 0 0 0 0 0 0 0 0 0 0 0 0 0 0 0 0 0 0 -10 -22 -1 -2 -2 -1 0 -6 -5 -6 -5 -5 0 0 0 0 -18 -1 -39 -7 -6 -3
0 0 0 0 0 0 0 0 0 0 0 0 0 0 0 0 0 0 0 0 0 0 0 -5 -1 -2 -1 -6 -4 0 0 0 0 0 0 -1 -4 -5 0 0 -7 -34 -14 -3 -7
0 0 0 0 0 0 0 0 0 0 0 0 0 0 0 0 0 0 0 0 0 0 -10 -4 -3 0 -5 -4 -4 0 -1 0 0 0 0 0 0 0 -4 -2 0 0 -13 -8 -2
0 0 0 0 0 0 0 0 0 0 0 0 0 0 0 0 0 0 0 0 0 -1 -3 -2 0 -4 -5 -3 -3 -3 -2 0 0 0 -5 -4 -4 0 0 0 0 0 0 0 -7
0 0 0 0 0 0 0 0 0 0 0 0 0 0 0 0 0 0 0 0 0 0 -3 -2 0 -4 -2 -2 -2 0 -1 -3 -1 -3 -2 -2 0 0 0 0 0 0 0 0 -21
0 0 0 0 0 0 0 0 0 0 0 0 0 0 0 0 0 0 0 0 0 0 0 0 -4 -1 0 0 0 0 -2 0 -2 -3 -2 0 0 0 0 0 0 0 0 0 0
0 0 0 0 0 0 0 0 0 0 0 0 0 0 0 0 0 0 0 0 0 0 0 -1 0 0 0 0 -1 -1 -4 -1 -3 -3 -2 0 0 0 0 0 0 0 0 0 0
0 0 0 0 0 0 0 0 0 0 0 0 0 0 0 0 0 0 0 0 -2 -2 0 0 0 0 0 0 -1 0 0 -4 -2 -4 0 0 0 0 0 0 0 0 0 0 0
0 0 0 0 0 0 0 0 0 0 0 0 0 0 0 0 0 0 0 0 -1 -1 0 0 0 0 -1 0 0 0 0 0 -1 0 0 0 0 0 0 0 0 -6 0 0 0
0 0 0 0 0 0 0 0 0 0 0 0 0 0 0 0 0 -2 0 0 -1 -2 -2 0 0 0 0 0 0 0 -3 -4 -22 -22 -7 -6 0 0 0 0 0 0 0 0 0
0 0 0 0 0 0 0 0 0 0 0 0 0 0 0 0 0 -1 0 0 0 -2 -2 0 0 0 0 0 0 -1 -6 -10 0 0 -2 0 -2 0 0 0 0 0 0 0 0
0 0 0 0 0 0 0 0 0 0 0 0 0 0 0 0 -1 0 0 0 0 0 0 0 0 0 0 0 0 0 -68 -25 0 0 0 -9 -3 0 -9 -4 -2 0 0 0 0
0 0 0 0 0 0 0 0 0 0 0 0 0 0 0 0 0 0 0 0 0 -1 0 0 0 0 0 0 0 -1 0 0 -1 0 0 0 -4 0 0 0 0 -1 -1 0 0
0 0 0 0 0 0 0 0 0 0 0 -1 -1 -2 0 0 0 -1 0 0 0 0 0 0 0 0 0 0 0 0 0 -1 0 0 0 -16 -4 0 0 0 0 0 0 0 0
0 0 0 0 0 0 0 0 0 0 0 0 0 0 0 0 0 0 0 0 0 0 -1 -1 0 0 0 0 0 0 0 0 0 0 0 0 0 0 0 0 0 0 0 0 0
0 0 0 0 0 0 0 0 0 0 0 0 0 0 0 0 0 0 0 0 0 0 0 0 0 0 0 0 0 0 0 0 0 0 0 0 0 0 0 0 0 0 0 0 0
0 0 0 0 0 0 0 0 0 0 0 0 0 0 -1 0 0 0 0 0 0 0 0 0 0 0 0 0 0 0 0 0 0 0 0 0 0 0 0 0 0 0 0 0 0
0 0 0 0 0 0 0 0 0 0 0 0 0 0 0 0 0 0 0 0 0 0 0 0 0 0 0 0 0 0 0 0 0 0 0 0 0 0 0 0 0 0 0 0 0
Wind_Speed
23 24 24 24 25 25 26 26 27 27 28 29 30 31 33 34 36 32 27 21 25 29 33 33 31 29 28 28 27 28 42 55 54 50 48 41 41 34 35 38 29 25 29 21 10
21 23 24 25 25 25 26 27 27 27 27 28 29 30 31 34 35 31 19 20 27 31 34 34 34 32 30 29 27 32 46 60 47 47 50 46 47 42 36 34 36 28 25 19 14
22 23 24 25 25 26 27 28 27 27 27 29 30 30 31 33 33 22 22 25 26 30 29 31 31 33 33 31 31 35 50 49 49 44 42 45 51 49 42 45 36 31 27 20 19
23 24 24 25 26 26 27 27 27 27 28 29 30 30 32 30 35 24 24 25 28 30 29 30 31 34 36 36 31 42 45 48 48 47 44 45 42 47 50 44 39 37 29 22 22
24 24 25 26 26 27 27 27 27 27 28 29 29 30 31 31 30 23 24 28 31 27 28 31 32 35 39 37 36 42 45 46 46 49 49 45 50 46 50 38 39 31 20 24 26
25 26 26 27 27 27 27 27 28 28 28 28 29 28 31 38 24 23 26 28 27 27 29 29 30 32 38 38 41 40 44 45 44 47 51 53 54 47 45 42 44 35 30 29 27
26 27 27 27 27 27 27 28 28 28 27 27 28 29 32 30 24 25 25 27 27 26 30 29 30 32 32 39 35 38 46 46 46 45 50 50 61 66 53 46 46 47 36 34 34
26 26 26 27 28 28 29 31 30 29 25 26 26 28 33 25 24 22 25 27 25 22 26 27 27 31 34 34 40 43 47 53 46 46 47 46 76 62 52 49 54 43 45 34 35
25 25 26 27 29 28 30 32 29 28 26 24 26 27 33 23 24 23 26 26 30 25 21 23 24 26 29 35 42 40 50 49 46 38 42 47 69 60 55 46 53 54 47 43 41
25 25 27 28 28 29 32 30 26 25 25 25 23 29 22 29 29 25 22 25 24 21 22 16 19 25 26 31 46 44 44 45 45 41 43 51 61 53 54 56 53 47 53 51 44
25 26 28 28 28 29 33 29 34 29 35 33 30 23 23 28 22 23 26 26 15 20 25 20 23 28 36 35 40 45 49 51 47 43 44 49 54 50 52 58 52 52 51 51 47
25 27 29 28 25 28 30 33 31 30 40 27 21 20 19 23 26 26 28 19 20 14 11 12 20 19 17 19 29 44 49 53 51 47 48 52 55 54 52 54 60 55 51 49 47
25 28 29 30 23 26 31 32 27 25 34 26 23 22 23 24 22 17 21 15 6 15 15 18 19 16 17 14 15 41 47 50 49 44 45 48 56 55 56 58 56 57 56 52 49
25 28 28 28 23 28 28 30 26 22 34 31 27 23 22 26 19 20 15 10 2 9 13 11 7 9 18 21 18 34 16 44 48 46 52 41 62 55 55 60 60 62 56 53 52
25 27 27 27 25 28 28 27 24 22 45 33 25 20 25 25 21 13 17 3 12 13 8 15 22 27 26 28 22 38 28 36 43 46 47 51 53 51 50 56 60 61 56 53 51
25 26 25 22 23 26 26 24 22 34 40 32 24 31 30 24 12 8 6 5 5 5 6 14 18 17 18 17 15 12 15 24 36 37 51 52 53 54 55 51 53 57 60 53 48
24 24 24 22 25 25 24 25 35 40 31 31 32 29 28 25 21 17 23 12 3 9 21 27 14 29 17 18 17 1 6 23 26 32 46 40 50 56 42 50 49 52 55 57 51
23 22 22 23 24 23 24 29 40 34 33 27 28 26 26 28 21 24 15 7 8 14 24 14 20 23 13 7 14 5 13 16 27 31 36 37 48 49 50 50 41 41 48 49 51
21 20 20 24 24 23 26 37 35 32 29 31 30 28 27 12 21 19 14 1 9 10 14 14 9 12 7 16 13 19 26 27 20 28 30 31 38 39 38 42 45 44 42 42 44
21 20 19 25 23 23 29 33 29 25 27 27 30 27 25 27 23 22 9 4 5 9 13 10 11 11 6 11 24 21 21 24 23 15 19 22 26 23 31 36 37 41 40 40 37
20 21 19 24 21 26 32 30 27 23 24 26 26 25 19 27 25 19 7 9 3 17 17 11 7 6 5 14 18 19 20 21 22 20 13 13 15 15 12 22 26 31 36 35 36
19 23 20 21 26 27 29 27 25 24 23 22 22 21 19 28 22 18 7 11 11 18 16 5 4 4 4 9 15 16 10 22 21 18 19 21 14 13 15 20 25 27 28 30 32
20 18 20 20 29 29 26 25 24 26 26 24 23 21 18 25 21 20 13 7 15 24 10 21 2 4 5 13 13 6 9 19 26 18 22 22 14 15 15 18 21 26 23 19 18
18 21 21 22 22 25 28 28 30 24 23 21 22 20 18 26 23 18 17 9 19 10 8 17 3 6 6 6 6 3 6 11 18 20 18 17 20 18 17 15 15 16 15 14 14
19 19 20 24 24 24 24 25 30 32 23 23 25 22 18 20 23 14 16 18 11 8 17 11 2 5 10 8 8 13 16 16 12 12 14 15 16 18 17 14 11 11 11 9 10
17 18 19 20 20 23 23 27 29 29 27 27 25 20 21 23 23 22 18 15 10 5 21 13 2 8 8 10 7 14 18 11 15 10 9 10 8 11 10 7 6 6 6 7 7
15 16 19 20 22 24 24 26 27 27 23 20 23 19 21 21 27 26 21 17 12 11 8 4 3 1 14 3 11 13 19 4 5 12 3 4 6 6 2 3 4 4 4 3 2
Wind_Direction
10 6 1 2 3 358 360 358 357 355 354 351 348 346 342 341 337 339 336 346 342 334 326 320 318 314 304 290 281 275 264 259 259 260 262 263 260 261 263 260 264 265 262 269 248
16 9 7 3 4 0 358 357 356 355 354 352 350 348 346 343 337 334 349 346 338 333 324 319 312 311 301 293 283 264 262 257 266 265 263 262 257 257 259 258 258 259 264 259 248
17 13 9 6 6 2 357 357 356 355 354 351 349 348 347 344 337 344 345 338 336 333 328 321 315 307 297 293 281 272 263 266 264 266 271 267 257 253 255 254 255 256 256 250 248
17 14 10 8 6 2 360 359 357 356 353 350 348 348 346 344 331 340 340 336 332 329 325 320 313 302 295 289 288 274 270 268 268 266 268 264 267 253 253 252 258 258 255 244 245
15 14 11 8 5 3 1 360 358 355 353 351 349 349 346 338 329 340 336 332 327 327 321 317 311 303 293 291 287 278 273 272 270 265 263 266 258 258 252 258 252 256 246 245 246
15 13 10 8 6 5 3 0 357 354 351 350 348 348 342 330 342 340 333 331 328 324 318 315 311 309 297 290 283 282 277 272 270 267 262 260 257 258 250 252 251 257 248 247 246
12 10 8 9 8 7 3 359 355 352 350 349 348 346 336 328 339 335 332 330 329 325 316 315 311 303 301 293 291 283 275 272 268 266 261 260 253 245 249 251 252 245 255 246 247
14 13 13 10 7 5 1 357 354 352 350 349 351 347 338 344 344 336 337 333 335 331 321 318 314 304 293 291 286 279 274 267 269 264 261 253 244 247 248 248 247 250 249 248 244
15 14 12 9 6 4 360 356 357 360 -0 358 351 350 341 356 348 344 338 337 333 330 328 323 315 304 300 287 280 275 268 266 267 266 260 253 246 248 248 249 245 245 246 248 245
13 12 8 7 6 4 0 359 3 4 9 5 7 350 356 350 346 344 350 345 340 342 335 328 320 307 302 288 271 272 269 268 264 264 260 254 249 251 245 243 245 245 244 245 244
10 9 6 7 7 6 4 6 1 1 359 352 346 350 348 352 352 349 346 342 342 338 326 323 313 302 292 288 281 275 269 266 267 265 264 257 253 251 245 242 242 241 245 241 241
10 8 7 8 10 11 10 9 7 1 353 1 9 4 358 1 351 346 346 355 347 330 325 251 241 243 244 295 292 276 270 264 264 263 261 258 254 251 248 242 238 238 242 241 241
10 8 8 9 16 14 12 11 11 12 0 12 15 12 13 5 351 357 6 2 312 254 249 249 249 248 247 241 252 242 268 263 263 265 263 260 254 249 244 243 242 240 239 240 241
11 9 10 11 16 11 11 11 15 21 5 12 16 24 18 2 14 359 17 22 251 255 264 259 281 267 252 244 240 240 244 264 261 260 254 258 249 248 243 239 238 235 235 237 238
10 10 12 17 11 11 10 13 22 25 359 9 16 24 9 12 3 30 17 287 265 267 245 266 271 270 259 255 245 238 289 270 261 258 256 252 250 245 243 237 233 232 232 233 237
9 11 14 18 18 16 14 19 25 10 4 9 14 5 8 16 351 25 294 351 280 285 305 299 284 269 253 256 243 227 264 282 266 258 249 247 244 242 239 236 233 231 230 232 235
10 13 18 22 16 14 17 20 9 8 10 8 6 7 7 11 294 290 299 287 311 306 308 302 2 341 346 354 355 174 228 268 267 253 247 248 242 236 243 235 236 231 230 231 234
12 18 22 25 19 20 22 17 7 10 9 8 6 5 14 9 297 302 290 303 49 17 314 0 330 15 30 20 357 127 154 275 264 258 250 249 238 237 240 237 242 233 231 232 234
15 20 26 21 21 25 23 12 11 12 13 7 8 15 15 7 297 292 293 341 43 18 357 342 1 325 284 255 160 135 171 182 278 251 253 249 243 247 239 234 233 233 232 231 234
13 19 26 19 26 29 21 14 16 19 15 16 13 19 12 307 301 300 276 82 5 1 344 17 315 55 354 133 154 156 170 171 206 252 242 243 235 239 229 230 235 229 229 232 235
17 17 28 21 31 26 17 17 18 21 20 19 16 12 15 301 296 289 244 290 66 319 327 302 95 5 37 109 131 142 153 161 185 207 256 234 236 257 256 233 232 229 230 233 236
19 12 26 29 21 23 18 20 21 21 23 18 17 15 15 300 285 276 247 270 294 313 322 331 198 298 299 110 134 161 179 183 186 195 197 258 257 284 269 253 242 235 236 237 239
15 22 28 32 16 17 21 23 23 20 19 20 17 20 15 290 282 272 268 254 299 311 304 317 246 283 127 106 109 187 245 222 207 204 233 255 260 296 285 265 246 235 240 236 236
21 17 25 30 29 22 18 20 19 23 19 20 12 17 23 293 283 263 270 266 301 302 299 299 219 187 194 218 238 296 314 318 168 195 213 258 263 277 280 264 245 236 234 231 231
23 25 26 15 21 22 23 23 19 19 28 22 23 26 302 282 282 247 272 286 291 88 318 297 134 225 251 202 155 336 333 332 310 269 250 271 272 270 267 259 244 231 228 219 225
22 23 28 21 25 22 27 22 20 21 23 22 22 19 293 277 267 270 271 277 260 279 313 305 146 276 133 112 130 88 342 334 343 319 264 264 256 265 255 241 219 218 213 206 222
33 36 28 26 25 25 26 24 23 22 30 26 18 19 296 290 287 267 253 245 241 274 303 326 10 125 106 97 105 92 343 347 358 355 196 209 232 206 155 109 153 162 155 157 161